COSMOS 1359

Satellite information

Favourite Embed

Satellite Type and Status

PAYLOADIN ORBIT

Key statistics

Satellite COSMOS 1359 at a glance.

Uptime

15927

Days in orbit

Revolutions

≈ 12.5

Per day

Orbit

LEO

Low Earth Orbit

Inclination

74.0

Latest

Satellite identification and parameters

Extended collection of information and parameters for COSMOS 1359.

Object identification

Identified? True

Debris? False

Object name: COSMOS 1359

International designator: 1982-040C

Object number (NORAD): 13162

Object ID (CCSDS): 13162

Country: COMMONWEALTH OF INDEPENDENT STATES (CIS)

Current information (Y/N): Y

RCS size: MEDIUM

Orbital parameters

Period: 115.012 minutes

Inclination: 74.0104 deg

SMA: 7834.116 km

Apoapsis: 1480.781 km

Periapsis: 1431.182 km

RAAN: 121.8111 deg

Eccentricy: 0.00316557

Argument of periapsis: 249.6857 deg

Mean anomaly: 290.8892 deg

Mean motion: 12.52038655 rev/day

Mean motion (dot): 0.00000008 rev/day2

B* drag term: 0.00015516245 1/REarth

Two-line elements (TLE)

Creation date: Dec. 12, 2025, 10:14 a.m.

Reference frame: TEME

Reference center: EARTH

Epoch: Dec. 12, 2025, 4:15 a.m. UTC

TLE line 0: 0 COSMOS 1359

TLE line 1: 1 13162U 82040C 25346.17743583 .00000008 00000-0 15516-3 0 9994

TLE line 2: 2 13162 74.0104 121.8111 0031656 249.6857 290.8892 12.52038655994195

Live tracking on map

Real-time ground track for satellite COSMOS 1359.

In-orbit conjunctions

There are no conjunctions computed for COSMOS 1359, at the moment. Check back to stay up to date, as we update our databases every day.

Go to all conjunctions

Associated space launch

Military communications satellites

COSMOS 1359 was lifted into orbit during the mission ‘Kosmos-3M | Strela-1M 233-240’, on board a Kosmos-3M space rocket.

The launch took place on May 6, 1982, 6:07 p.m. from 132/2.

For more information about the launch, click the button.

Launch to space Kosmos-3M | Strela-1M 233-240
Kosmos-3M | Strela-1M 233-240

Agency: N/A

Status: Launch Successful

Launch date: May 6, 1982, 6:07 p.m. UTC

Rocket: Kosmos-3M

Launch pad: 132/2

Location: Plesetsk Cosmodrome, Russian Federation

...

Latest news about this satellite

There are no fresh news available about this satellite. Check back as we update our databases every day.


Newsletter sign-up

Weekly statistics, charts and insights to help you stay on top of the space industry.